ATS 1 1 02608U 66110A 12033.50851062 -.00000057 00000-0 10000-3 0 2750 2 02608 6.3033 306.4230 0004973 197.5952 162.5230 1.00314830 82146 ATS 3 1 03029U 67111A 12032.79625352 -.00000083 00000-0 10000-3 0 9184 2 03029 8.0132 312.6174 0017688 73.0363 287.2658 1.00272191162006 ORIZURU (DEBUT) 1 20479U 90013B 12034.04295994 .00000016 00000-0 10214-3 0 1357 2 20479 99.0637 151.0799 0539903 147.3846 216.1844 12.83722812 30322 SURFSAT 1 23711U 95059B 12034.59191390 -.00000042 00000-0 -15766-5 0 88 2 23711 100.3621 26.1581 0368295 86.8182 277.4939 13.12598183778563 MAQSAT H 1 25023U 97066A 12033.19292078 -.00000092 00000-0 82875-4 0 679 2 25023 7.7389 34.6220 6502394 133.9876 302.5615 3.09564900161096 MAQSAT B 1 25024U 97066B 12033.59392196 -.00000088 00000-0 11089-3 0 950 2 25024 7.7968 31.5045 6516967 139.3861 294.2941 3.08775666160939 TEAMSAT 1 25025U 97066C 12034.12432629 -.00000046 00000-0 72641-3 0 907 2 25025 7.7585 48.8839 6521264 105.5514 330.8663 3.07919617160497 OPAL (OO-38) 1 26063U 00004C 12034.45236074 .00000103 00000-0 55310-4 0 3101 2 26063 100.2169 11.3665 0037121 74.3631 286.1634 14.36046033629904 FALCONSAT 1 26064U 00004D 12034.02915614 .00000121 00000-0 61836-4 0 2726 2 26064 100.2170 8.2346 0038362 84.4322 276.1230 14.35578394629668 PICOSAT 1 & 2 [TETHERED] 1 26080U 00004H 12034.54646380 .00000455 00000-0 15960-3 0 7846 2 26080 100.2284 43.6909 0032372 3.7659 356.3741 14.40891287629890 PICOSAT 3 1 26091U 00004J 12034.08172427 .00000726 00000-0 22687-3 0 4137 2 26091 100.2181 59.9775 0030775 313.0535 46.8081 14.44436737630073 PICOSAT 4 1 26092U 00004K 12034.44539678 .00000477 00000-0 16602-3 0 2369 2 26092 100.2175 36.3875 0035088 359.3731 0.7401 14.40926270629097 PICOSAT 5 1 26093U 00004L 12033.78610808 .00000713 00000-0 21563-3 0 1466 2 26093 100.2090 69.1134 0031796 288.4378 71.3302 14.46122859630810 PICOSAT 6 1 26094U 00004M 12034.45452804 .00000498 00000-0 17508-3 0 2872 2 26094 100.2207 33.9149 0035436 12.7529 347.4409 14.40196143628539 SNAP 1 1 26386U 00033C 12034.15882275 .00000413 00000-0 84810-4 0 5246 2 26386 98.2571 93.2076 0012401 64.0138 296.2340 14.65745830619898 PICOSAT 9 1 26930U 01043B 12034.76097198 -.00000017 00000-0 25459-4 0 9375 2 26930 67.0009 78.0093 0002732 314.1150 45.9730 14.30171934540235 PROBA-1 1 26958U 01049B 12034.75503897 .00000583 00000-0 61378-4 0 6271 2 26958 97.4908 70.3363 0081556 51.4055 309.4408 14.90594453559007 BIRD 2 1 26959U 01049C 12034.73357486 .00002829 00000-0 14845-3 0 4225 2 26959 97.9052 227.9277 0015357 27.7937 102.8338 15.16548402567477 CUTE-1 (CO-55) 1 27844U 03031E 12034.01021214 .00000195 00000-0 11031-3 0 3014 2 27844 98.7048 44.3509 0009016 252.8323 107.1855 14.20955805445693 CANX-1 1 27847U 03031H 12034.21572684 .00000149 00000-0 88330-4 0 2162 2 27847 98.6951 45.0615 0008369 230.1273 129.9207 14.21206111445780 CUBESAT XI-IV (CO-57) 1 27848U 03031J 12034.06107704 .00000165 00000-0 97024-4 0 2509 2 27848 98.7140 43.6772 0008770 257.6541 102.3645 14.20716469445645 NAXING 1 1 28221U 04012B 12034.03573275 .00001018 00000-0 11399-3 0 968 2 28221 97.4605 28.0024 0010152 246.5027 113.5119 14.88843487423217 ST5-A 1 28980U 06008A 12034.76023060 .00011323 00000-0 61835-3 0 8406 2 28980 105.6811 58.6024 2290862 155.8658 216.9421 10.75335933227503 ST5-B 1 28981U 06008B 12034.77178372 .00017607 16774-5 56431-3 0 9627 2 28981 105.5217 107.6245 2185378 86.4565 298.1855 11.05025472230149 ST5-C 1 28982U 06008C 12034.18035662 .00018434 15999-5 68481-3 0 9598 2 28982 105.5628 92.8684 2223643 111.2169 273.9734 10.95045047229203 GENESIS 1 1 29252U 06029A 12034.19173243 .00002202 00000-0 16029-3 0 5338 2 29252 64.5103 158.6765 0055454 259.6389 99.8484 15.05471808305430 FALCONSAT-3 1 30776U 07006E 12034.24053443 .00003457 00000-0 23175-3 0 2736 2 30776 35.4338 20.4416 0003446 279.0828 80.9498 15.06536671269882 GENESIS 2 1 31789U 07028A 12034.23113404 .00001484 00000-0 11477-3 0 2806 2 31789 64.5066 191.1964 0043649 310.4392 49.2931 15.05053179252627 APRIZESAT 4 1 35684U 09041D 12034.30166887 .00000234 00000-0 40813-4 0 7929 2 35684 98.0684 305.3578 0048760 290.9821 68.6189 14.76545523135515 APRIZESAT 3 1 35686U 09041F 12034.77964886 .00000251 00000-0 36410-4 0 7980 2 35686 98.0878 316.0341 0077626 263.9386 95.2978 14.83256313136188 PROBA-2 1 36037U 09059B 12034.53629855 -.00000045 00000-0 00000+0 0 7363 2 36037 98.3027 226.2687 0012539 245.2520 114.7392 14.52181347119490 PRISMA (MANGO) 1 36599U 10028B 12034.82872433 .00000342 00000-0 11810-3 0 2929 2 36599 98.2941 213.6271 0043357 187.4522 289.9747 14.41120744 86154 PRISMA (TANGO) 1 36827U 10028F 12034.82872433 .00000345 00000-0 11886-3 0 9005 2 36827 98.2938 213.6269 0043311 187.3169 290.0895 14.41120778 77926 APRIZESAT 5 1 37792U 11044E 12034.78258363 .00000426 00000-0 73677-4 0 5026 2 37792 98.2490 116.0356 0061562 171.9055 188.3155 14.72531759 25082 APRIZESAT 6 1 37793U 11044F 12034.75668250 .00000406 00000-0 75604-4 0 5080 2 37793 98.2464 115.2211 0049387 171.0374 189.1717 14.69817752 25035